����������;��������(kWh)
2015-09-07 00:00;87,7
2015-09-07 00:15;75,7
2015-09-07 00:30;74,4
2015-09-07 00:45;75
2015-09-07 01:00;72,7
2015-09-07 01:15;73,75
2015-09-07 01:30;73,45
2015-09-07 01:45;74,3
2015-09-07 02:00;73,25
2015-09-07 02:15;73,8
2015-09-07 02:30;75,05
2015-09-07 02:45;74,3
2015-09-07 03:00;73,9
2015-09-07 03:15;74,9
2015-09-07 03:30;73,1
2015-09-07 03:45;74,35
2015-09-07 04:00;74,55
2015-09-07 04:15;82,75
2015-09-07 04:30;84,65
2015-09-07 04:45;84,6
2015-09-07 05:00;83,4
2015-09-07 05:15;84,3
2015-09-07 05:30;84,95
2015-09-07 05:45;81,2
2015-09-07 06:00;84,05
2015-09-07 06:15;88,5
2015-09-07 06:30;90,4
2015-09-07 06:45;95,5
2015-09-07 07:00;97,45
2015-09-07 07:15;98,45
2015-09-07 07:30;97,95
2015-09-07 07:45;136,95
2015-09-07 08:00;156,7
2015-09-07 08:15;157,95
2015-09-07 08:30;154,4
2015-09-07 08:45;155,7
2015-09-07 09:00;154,65
2015-09-07 09:15;165
2015-09-07 09:30;183,55
2015-09-07 09:45;195,85
2015-09-07 10:00;217
2015-09-07 10:15;293,9
2015-09-07 10:30;324
2015-09-07 10:45;327,4
2015-09-07 11:00;337,35
2015-09-07 11:15;320
2015-09-07 11:30;291,75
2015-09-07 11:45;287,7
2015-09-07 12:00;289,6
2015-09-07 12:15;300,55
2015-09-07 12:30;307,65
2015-09-07 12:45;321,1
2015-09-07 13:00;364,85
2015-09-07 13:15;362,8
2015-09-07 13:30;372,75
2015-09-07 13:45;351,85
2015-09-07 14:00;317,15
2015-09-07 14:15;315,9
2015-09-07 14:30;302
2015-09-07 14:45;284,1
2015-09-07 15:00;288,35
2015-09-07 15:15;270,25
2015-09-07 15:30;264,7
2015-09-07 15:45;245,8
2015-09-07 16:00;294,8
2015-09-07 16:15;294,5
2015-09-07 16:30;280,1
2015-09-07 16:45;261,7
2015-09-07 17:00;250,45
2015-09-07 17:15;227,2
2015-09-07 17:30;240,75
2015-09-07 17:45;237,1
2015-09-07 18:00;208,95
2015-09-07 18:15;204,3
2015-09-07 18:30;195,25
2015-09-07 18:45;181,85
2015-09-07 19:00;174,45
2015-09-07 19:15;174,9
2015-09-07 19:30;164,25
2015-09-07 19:45;164,55
2015-09-07 20:00;156,4
2015-09-07 20:15;153,15
2015-09-07 20:30;152,35
2015-09-07 20:45;133,7
2015-09-07 21:00;132,6
2015-09-07 21:15;125,45
2015-09-07 21:30;123,45
2015-09-07 21:45;115,9
2015-09-07 22:00;115,1
2015-09-07 22:15;101,6
2015-09-07 22:30;99,85
2015-09-07 22:45;98,45
2015-09-07 23:00;102,55
2015-09-07 23:15;103,5
2015-09-07 23:30;99,9
2015-09-07 23:45;104,35
2015-09-08 00:00;108,1
2015-09-08 00:15;95,4
2015-09-08 00:30;97,95
2015-09-08 00:45;97,25
2015-09-08 01:00;95,45
2015-09-08 01:15;96,4
2015-09-08 01:30;91,15
2015-09-08 01:45;89,4
2015-09-08 02:00;89,2
2015-09-08 02:15;89,85
2015-09-08 02:30;88,6
2015-09-08 02:45;86,5
2015-09-08 03:00;86,75
2015-09-08 03:15;84,45
2015-09-08 03:30;86,75
2015-09-08 03:45;83,3
2015-09-08 04:00;87,7
2015-09-08 04:15;90,1
2015-09-08 04:30;88,95
2015-09-08 04:45;87,05
2015-09-08 05:00;90,8
2015-09-08 05:15;88,4
2015-09-08 05:30;91,7
2015-09-08 05:45;85,5
2015-09-08 06:00;90,3
2015-09-08 06:15;87,8
2015-09-08 06:30;93,1
2015-09-08 06:45;94,2
2015-09-08 07:00;92,65
2015-09-08 07:15;95,6
2015-09-08 07:30;102
2015-09-08 07:45;139,55
2015-09-08 08:00;221,8
2015-09-08 08:15;222,8
2015-09-08 08:30;224,15
2015-09-08 08:45;209,6
2015-09-08 09:00;200,7
2015-09-08 09:15;208,35
2015-09-08 09:30;226,6
2015-09-08 09:45;233,2
2015-09-08 10:00;256,15
2015-09-08 10:15;264,35
2015-09-08 10:30;282,85
2015-09-08 10:45;286,15
2015-09-08 11:00;291,6
2015-09-08 11:15;312,7
2015-09-08 11:30;303
2015-09-08 11:45;306,75
2015-09-08 12:00;322,2
2015-09-08 12:15;319,05
2015-09-08 12:30;311,85
2015-09-08 12:45;324,5
2015-09-08 13:00;327,05
2015-09-08 13:15;316,25
2015-09-08 13:30;318
2015-09-08 13:45;302,55
2015-09-08 14:00;282,4
2015-09-08 14:15;290,7
2015-09-08 14:30;290,45
2015-09-08 14:45;279,15
2015-09-08 15:00;292,2
2015-09-08 15:15;295,3
2015-09-08 15:30;251,7
2015-09-08 15:45;238,9
2015-09-08 16:00;233,5
2015-09-08 16:15;236,5
2015-09-08 16:30;218,45
2015-09-08 16:45;212,25
2015-09-08 17:00;215,45
2015-09-08 17:15;210,45
2015-09-08 17:30;209,7
2015-09-08 17:45;203,7
2015-09-08 18:00;199,6
2015-09-08 18:15;197,35
2015-09-08 18:30;190,2
2015-09-08 18:45;183,45
2015-09-08 19:00;184,95
2015-09-08 19:15;177,4
2015-09-08 19:30;177,85
2015-09-08 19:45;167,5
2015-09-08 20:00;164,75
2015-09-08 20:15;168,25
2015-09-08 20:30;158,15
2015-09-08 20:45;149,6
2015-09-08 21:00;152,25
2015-09-08 21:15;140,1
2015-09-08 21:30;124,05
2015-09-08 21:45;119,15
2015-09-08 22:00;113,8
2015-09-08 22:15;107,45
2015-09-08 22:30;108,15
2015-09-08 22:45;106,55
2015-09-08 23:00;96,05
2015-09-08 23:15;96,95
2015-09-08 23:30;95,75
2015-09-08 23:45;97,8
2015-09-09 00:00;102,85
2015-09-09 00:15;91,8
2015-09-09 00:30;93,45
2015-09-09 00:45;91,2
2015-09-09 01:00;88,15
2015-09-09 01:15;89,3
2015-09-09 01:30;89,55
2015-09-09 01:45;87,1
2015-09-09 02:00;89,5
2015-09-09 02:15;87,65
2015-09-09 02:30;88,2
2015-09-09 02:45;86,9
2015-09-09 03:00;88,4
2015-09-09 03:15;87,05
2015-09-09 03:30;86,6
2015-09-09 03:45;87,35
2015-09-09 04:00;89,05
2015-09-09 04:15;89,3
2015-09-09 04:30;87,9
2015-09-09 04:45;85,95
2015-09-09 05:00;88,25
2015-09-09 05:15;101,15
2015-09-09 05:30;102
2015-09-09 05:45;97,3
2015-09-09 06:00;101,15
2015-09-09 06:15;98,8
2015-09-09 06:30;103,95
2015-09-09 06:45;106,05
2015-09-09 07:00;105,15
2015-09-09 07:15;102,95
2015-09-09 07:30;107,5
2015-09-09 07:45;145,9
2015-09-09 08:00;211,3
2015-09-09 08:15;211,15
2015-09-09 08:30;205,25
2015-09-09 08:45;175,9
2015-09-09 09:00;178,65
2015-09-09 09:15;193,15
2015-09-09 09:30;208,1
2015-09-09 09:45;207,75
2015-09-09 10:00;236,05
2015-09-09 10:15;235,55
2015-09-09 10:30;265,95
2015-09-09 10:45;306,2
2015-09-09 11:00;316,8
2015-09-09 11:15;296,3
2015-09-09 11:30;277,8
2015-09-09 11:45;269,5
2015-09-09 12:00;270,7
2015-09-09 12:15;278,05
2015-09-09 12:30;277,95
2015-09-09 12:45;278,5
2015-09-09 13:00;305,4
2015-09-09 13:15;331,45
2015-09-09 13:30;334,65
2015-09-09 13:45;335,1
2015-09-09 14:00;292,6
2015-09-09 14:15;269,95
2015-09-09 14:30;274,35
2015-09-09 14:45;273,05
2015-09-09 15:00;263,95
2015-09-09 15:15;260,55
2015-09-09 15:30;247,5
2015-09-09 15:45;237,55
2015-09-09 16:00;219,35
2015-09-09 16:15;210,9
2015-09-09 16:30;223,75
2015-09-09 16:45;261,35
2015-09-09 17:00;228,75
2015-09-09 17:15;209,45
2015-09-09 17:30;207,8
2015-09-09 17:45;213,85
2015-09-09 18:00;202,05
2015-09-09 18:15;190
2015-09-09 18:30;186,05
2015-09-09 18:45;184,8
2015-09-09 19:00;160,5
2015-09-09 19:15;155,95
2015-09-09 19:30;145,05
2015-09-09 19:45;139,8
2015-09-09 20:00;137,2
2015-09-09 20:15;137,7
2015-09-09 20:30;133,8
2015-09-09 20:45;121,4
2015-09-09 21:00;119,3
2015-09-09 21:15;117,75
2015-09-09 21:30;114,6
2015-09-09 21:45;116,1
2015-09-09 22:00;113,9
2015-09-09 22:15;110,55
2015-09-09 22:30;104,15
2015-09-09 22:45;102,3
2015-09-09 23:00;98,8
2015-09-09 23:15;89,35
2015-09-09 23:30;89,4
2015-09-09 23:45;90,5
2015-09-10 00:00;96,7
2015-09-10 00:15;84,65
2015-09-10 00:30;82,05
2015-09-10 00:45;80,1
2015-09-10 01:00;81,7
2015-09-10 01:15;81
2015-09-10 01:30;80,6
2015-09-10 01:45;79,6
2015-09-10 02:00;80,15
2015-09-10 02:15;79,75
2015-09-10 02:30;79,85
2015-09-10 02:45;79,35
2015-09-10 03:00;79,55
2015-09-10 03:15;79,95
2015-09-10 03:30;78,25
2015-09-10 03:45;79,85
2015-09-10 04:00;79,1
2015-09-10 04:15;79,1
2015-09-10 04:30;78,85
2015-09-10 04:45;78,3
2015-09-10 05:00;78,1
2015-09-10 05:15;76,9
2015-09-10 05:30;81,7
2015-09-10 05:45;93,95
2015-09-10 06:00;93,7
2015-09-10 06:15;92,6
2015-09-10 06:30;96,2
2015-09-10 06:45;98,55
2015-09-10 07:00;97,2
2015-09-10 07:15;99,75
2015-09-10 07:30;106,55
2015-09-10 07:45;149,9
2015-09-10 08:00;199,8
2015-09-10 08:15;199,85
2015-09-10 08:30;181,4
2015-09-10 08:45;164,05
2015-09-10 09:00;151,35
2015-09-10 09:15;167,3
2015-09-10 09:30;180,95
2015-09-10 09:45;193,1
2015-09-10 10:00;219,8
2015-09-10 10:15;230,05
2015-09-10 10:30;231,6
2015-09-10 10:45;227,6
2015-09-10 11:00;232,35
2015-09-10 11:15;250,05
2015-09-10 11:30;260,1
2015-09-10 11:45;260,35
2015-09-10 12:00;265,55
2015-09-10 12:15;327,6
2015-09-10 12:30;330,5
2015-09-10 12:45;316,6
2015-09-10 13:00;281,7
2015-09-10 13:15;288,4
2015-09-10 13:30;294,3
2015-09-10 13:45;287,2
2015-09-10 14:00;289,1
2015-09-10 14:15;289,2
2015-09-10 14:30;273,8
2015-09-10 14:45;276,35
2015-09-10 15:00;261,35
2015-09-10 15:15;264,6
2015-09-10 15:30;312,75
2015-09-10 15:45;288,65
2015-09-10 16:00;252,4
2015-09-10 16:15;242,2
2015-09-10 16:30;234,55
2015-09-10 16:45;231,15
2015-09-10 17:00;232,9
2015-09-10 17:15;221,95
2015-09-10 17:30;222,6
2015-09-10 17:45;217,25
2015-09-10 18:00;216,5
2015-09-10 18:15;210,75
2015-09-10 18:30;201,7
2015-09-10 18:45;189,4
2015-09-10 19:00;178,4
2015-09-10 19:15;166,65
2015-09-10 19:30;166,5
2015-09-10 19:45;160,35
2015-09-10 20:00;159,5
2015-09-10 20:15;150,05
2015-09-10 20:30;143,65
2015-09-10 20:45;132,7
2015-09-10 21:00;119,35
2015-09-10 21:15;114,5
2015-09-10 21:30;105,4
2015-09-10 21:45;98,05
2015-09-10 22:00;95
2015-09-10 22:15;92,65
2015-09-10 22:30;93,7
2015-09-10 22:45;92,35
2015-09-10 23:00;91,05
2015-09-10 23:15;88,3
2015-09-10 23:30;88,05
2015-09-10 23:45;89,2
2015-09-11 00:00;94,5
2015-09-11 00:15;85,3
2015-09-11 00:30;83,55
2015-09-11 00:45;83,9
2015-09-11 01:00;83,5
2015-09-11 01:15;82,7
2015-09-11 01:30;84,1
2015-09-11 01:45;82,3
2015-09-11 02:00;82,7
2015-09-11 02:15;82,05
2015-09-11 02:30;80,45
2015-09-11 02:45;81
2015-09-11 03:00;80,75
2015-09-11 03:15;79,8
2015-09-11 03:30;80,15
2015-09-11 03:45;79,4
2015-09-11 04:00;78,8
2015-09-11 04:15;80
2015-09-11 04:30;78,2
2015-09-11 04:45;78,65
2015-09-11 05:00;76,8
2015-09-11 05:15;76,8
2015-09-11 05:30;76,05
2015-09-11 05:45;74,7
2015-09-11 06:00;78,9
2015-09-11 06:15;83,6
2015-09-11 06:30;91,2
2015-09-11 06:45;91,5
2015-09-11 07:00;91,85
2015-09-11 07:15;95,25
2015-09-11 07:30;106,9
2015-09-11 07:45;150,75
2015-09-11 08:00;218,3
2015-09-11 08:15;214,55
2015-09-11 08:30;203,4
2015-09-11 08:45;202,55
2015-09-11 09:00;199,85
2015-09-11 09:15;211,75
2015-09-11 09:30;213,55
2015-09-11 09:45;239,6
2015-09-11 10:00;232,8
2015-09-11 10:15;239,9
2015-09-11 10:30;257,65
2015-09-11 10:45;257,55
2015-09-11 11:00;255,4
2015-09-11 11:15;260,25
2015-09-11 11:30;257,25
2015-09-11 11:45;257,05
2015-09-11 12:00;269
2015-09-11 12:15;287,75
2015-09-11 12:30;283,4
2015-09-11 12:45;276,5
2015-09-11 13:00;320,55
2015-09-11 13:15;336,05
2015-09-11 13:30;327,35
2015-09-11 13:45;316,05
2015-09-11 14:00;308,8
2015-09-11 14:15;297,75
2015-09-11 14:30;283,75
2015-09-11 14:45;275,65
2015-09-11 15:00;268,25
2015-09-11 15:15;251,55
2015-09-11 15:30;249,7
2015-09-11 15:45;229,75
2015-09-11 16:00;259,8
2015-09-11 16:15;262,05
2015-09-11 16:30;211,55
2015-09-11 16:45;228,4
2015-09-11 17:00;222
2015-09-11 17:15;214,5
2015-09-11 17:30;212,95
2015-09-11 17:45;209,15
2015-09-11 18:00;200,75
2015-09-11 18:15;188,95
2015-09-11 18:30;186,05
2015-09-11 18:45;179,05
2015-09-11 19:00;177,9
2015-09-11 19:15;164,7
2015-09-11 19:30;162,65
2015-09-11 19:45;153,95
2015-09-11 20:00;145,6
2015-09-11 20:15;142,1
2015-09-11 20:30;140,7
2015-09-11 20:45;112,8
2015-09-11 21:00;110,5
2015-09-11 21:15;107,15
2015-09-11 21:30;105,05
2015-09-11 21:45;98,35
2015-09-11 22:00;92,8
2015-09-11 22:15;89,95
2015-09-11 22:30;87,75
2015-09-11 22:45;87
2015-09-11 23:00;88,5
2015-09-11 23:15;94,8
2015-09-11 23:30;92,05
2015-09-11 23:45;90,75
2015-09-12 00:00;90,85
2015-09-12 00:15;78,9
2015-09-12 00:30;79,7
2015-09-12 00:45;80,55
2015-09-12 01:00;79,1
2015-09-12 01:15;80,05
2015-09-12 01:30;78,95
2015-09-12 01:45;79,25
2015-09-12 02:00;80,8
2015-09-12 02:15;78,4
2015-09-12 02:30;78,1
2015-09-12 02:45;78,55
2015-09-12 03:00;77,75
2015-09-12 03:15;79,9
2015-09-12 03:30;79,4
2015-09-12 03:45;77,45
2015-09-12 04:00;79,7
2015-09-12 04:15;78,8
2015-09-12 04:30;77,6
2015-09-12 04:45;76,45
2015-09-12 05:00;77,9
2015-09-12 05:15;76,2
2015-09-12 05:30;76,95
2015-09-12 05:45;74,65
2015-09-12 06:00;76,5
2015-09-12 06:15;80,95
2015-09-12 06:30;85,75
2015-09-12 06:45;84,1
2015-09-12 07:00;83,7
2015-09-12 07:15;81,2
2015-09-12 07:30;81,2
2015-09-12 07:45;100,75
2015-09-12 08:00;98,4
2015-09-12 08:15;88,6
2015-09-12 08:30;87,85
2015-09-12 08:45;86,15
2015-09-12 09:00;87,75
2015-09-12 09:15;87,65
2015-09-12 09:30;94,05
2015-09-12 09:45;93,5
2015-09-12 10:00;96
2015-09-12 10:15;100,25
2015-09-12 10:30;102,1
2015-09-12 10:45;121,85
2015-09-12 11:00;165,6
2015-09-12 11:15;142,2
2015-09-12 11:30;112,65
2015-09-12 11:45;119,75
2015-09-12 12:00;121,35
2015-09-12 12:15;116,25
2015-09-12 12:30;116,65
2015-09-12 12:45;118,45
2015-09-12 13:00;114,8
2015-09-12 13:15;113,3
2015-09-12 13:30;108,15
2015-09-12 13:45;112,65
2015-09-12 14:00;108,1
2015-09-12 14:15;108,75
2015-09-12 14:30;106,55
2015-09-12 14:45;109,85
2015-09-12 15:00;110,25
2015-09-12 15:15;111,8
2015-09-12 15:30;109
2015-09-12 15:45;108,2
2015-09-12 16:00;109,1
2015-09-12 16:15;111,3
2015-09-12 16:30;112,45
2015-09-12 16:45;109,8
2015-09-12 17:00;104,9
2015-09-12 17:15;106,75
2015-09-12 17:30;103,55
2015-09-12 17:45;108,85
2015-09-12 18:00;108,7
2015-09-12 18:15;105,6
2015-09-12 18:30;108,2
2015-09-12 18:45;102,5
2015-09-12 19:00;99,95
2015-09-12 19:15;105
2015-09-12 19:30;102,6
2015-09-12 19:45;100,15
2015-09-12 20:00;104,4
2015-09-12 20:15;107,2
2015-09-12 20:30;110,4
2015-09-12 20:45;102,45
2015-09-12 21:00;102,9
2015-09-12 21:15;98,75
2015-09-12 21:30;91,2
2015-09-12 21:45;87,5
2015-09-12 22:00;87,25
2015-09-12 22:15;85,85
2015-09-12 22:30;86,3
2015-09-12 22:45;86,85
2015-09-12 23:00;86,15
2015-09-12 23:15;86,2
2015-09-12 23:30;85,6
2015-09-12 23:45;84,65
2015-09-13 00:00;90,95
2015-09-13 00:15;79,35
2015-09-13 00:30;78,4
2015-09-13 00:45;78,8
2015-09-13 01:00;81,05
2015-09-13 01:15;79,4
2015-09-13 01:30;80,35
2015-09-13 01:45;78,85
2015-09-13 02:00;79,5
2015-09-13 02:15;81,15
2015-09-13 02:30;81,25
2015-09-13 02:45;80,25
2015-09-13 03:00;80,35
2015-09-13 03:15;78,65
2015-09-13 03:30;79,65
2015-09-13 03:45;78,7
2015-09-13 04:00;78,45
2015-09-13 04:15;81,45
2015-09-13 04:30;87,5
2015-09-13 04:45;86,7
2015-09-13 05:00;82,05
2015-09-13 05:15;78,1
2015-09-13 05:30;78,6
2015-09-13 05:45;78,75
2015-09-13 06:00;81,8
2015-09-13 06:15;79,7
2015-09-13 06:30;86,8
2015-09-13 06:45;86,55
2015-09-13 07:00;85,05
2015-09-13 07:15;81,95
2015-09-13 07:30;82,35
2015-09-13 07:45;79,85
2015-09-13 08:00;78,6
2015-09-13 08:15;75,9
2015-09-13 08:30;75,4
2015-09-13 08:45;73,45
2015-09-13 09:00;73,65
2015-09-13 09:15;74,45
2015-09-13 09:30;72,4
2015-09-13 09:45;74,05
2015-09-13 10:00;76,55
2015-09-13 10:15;80,15
2015-09-13 10:30;77,8
2015-09-13 10:45;79,15
2015-09-13 11:00;80,5
2015-09-13 11:15;82,1
2015-09-13 11:30;81,75
2015-09-13 11:45;81,25
2015-09-13 12:00;82,05
2015-09-13 12:15;83,15
2015-09-13 12:30;85,85
2015-09-13 12:45;83,45
2015-09-13 13:00;84,95
2015-09-13 13:15;81,95
2015-09-13 13:30;86,85
2015-09-13 13:45;87,9
2015-09-13 14:00;87,55
2015-09-13 14:15;86,55
2015-09-13 14:30;87,4
2015-09-13 14:45;88,55
2015-09-13 15:00;87,5
2015-09-13 15:15;91,85
2015-09-13 15:30;93,05
2015-09-13 15:45;90,75
2015-09-13 16:00;87,85
2015-09-13 16:15;88,25
2015-09-13 16:30;87,25
2015-09-13 16:45;86,85
2015-09-13 17:00;94,35
2015-09-13 17:15;93,7
2015-09-13 17:30;96
2015-09-13 17:45;93,55
2015-09-13 18:00;92,95
2015-09-13 18:15;93,25
2015-09-13 18:30;92,4
2015-09-13 18:45;87,05
2015-09-13 19:00;88,05
2015-09-13 19:15;93,35
2015-09-13 19:30;91,65
2015-09-13 19:45;92,8
2015-09-13 20:00;101,55
2015-09-13 20:15;100,3
2015-09-13 20:30;98,2
2015-09-13 20:45;93,55
2015-09-13 21:00;94,95
2015-09-13 21:15;96,1
2015-09-13 21:30;93,55
2015-09-13 21:45;90,1
2015-09-13 22:00;84,75
2015-09-13 22:15;86,7
2015-09-13 22:30;85,95
2015-09-13 22:45;85,6
2015-09-13 23:00;85,2
2015-09-13 23:15;84,85
2015-09-13 23:30;84,7
2015-09-13 23:45;88,3

